This is the latest recevied weather packets stored in our database for station/object JA3YAI-13. If no packets are shown the sender has not sent any weather packets the latest 1 day(s).
| Time | Temp. | Humidity | Pressure | Rain* | Wind** | Luminosity | Snow |
|---|---|---|---|---|---|---|---|
| 1836274805 | 28.89° C | 81% | 1001.7 hPa | 0 mm | 1.34 m/s, 155° | - | - |
| 1836274205 | 28.33° C | 81% | 1001.6 hPa | 0 mm | 0.89 m/s, 248° | - | - |
| 1778060211 | 17.22° C | 77% | 1009.6 hPa | 0 mm | 0 m/s | - | - |
| 1778059613 | 17.22° C | 75% | 1009.6 hPa | 0 mm | 0 m/s | - | - |
| 1778059013 | 17.78° C | 75% | 1009.5 hPa | 0 mm | 0 m/s | - | - |
| 1778058413 | 17.78° C | 74% | 1009.6 hPa | 0 mm | 0 m/s | - | - |
| 1778057813 | 17.78° C | 74% | 1009.6 hPa | 0 mm | 0 m/s | - | - |
| 1778057212 | 18.33° C | 75% | 1009.6 hPa | 0 mm | 0 m/s | - | - |
| 1778056612 | 17.78° C | 73% | 1009.7 hPa | 0 mm | 0 m/s | - | - |
| 1778056012 | 18.33° C | 72% | 1009.8 hPa | 0 mm | 0 m/s | - | - |
| 1778055412 | 18.33° C | 72% | 1009.9 hPa | 0 mm | 0 m/s | - | - |
| 1778054812 | 18.33° C | 72% | 1009.9 hPa | 0 mm | 0.45 m/s, 68° | - | - |
| 1778054212 | 18.89° C | 70% | 1010.1 hPa | 0 mm | 0 m/s | - | - |
| 1778053612 | 19.44° C | 70% | 1009.9 hPa | 0 mm | 0.45 m/s, 93° | - | - |
| 1778053014 | 19.44° C | 72% | 1010.1 hPa | 0 mm | 0 m/s | - | - |
| 1778052414 | 19.44° C | 71% | 1010.2 hPa | 0 mm | 0 m/s | - | - |
| 1778051814 | 18.89° C | 72% | 1009.7 hPa | 0 mm | 0 m/s | - | - |
| 1778051214 | 18.89° C | 72% | 1010.3 hPa | 0 mm | 0 m/s | - | - |
| 1778050614 | 19.44° C | 71% | 1010.1 hPa | 0 mm | 0 m/s | - | - |
| 1778050014 | 20° C | 70% | 1010.1 hPa | 0 mm | 0.45 m/s, 23° | - | - |
| 1778049413 | 20° C | 71% | 1010.2 hPa | 0 mm | 0 m/s | - | - |
| 1778048813 | 18.89° C | 71% | 1010.5 hPa | 0 mm | 0.45 m/s, 203° | - | - |
| 1778048213 | 19.44° C | 73% | 1010.4 hPa | 0 mm | 0.45 m/s, 147° | - | - |
| 1778047613 | 20° C | 74% | 1010.8 hPa | 0 mm | 0 m/s | - | - |
| 1778047013 | 20.56° C | 71% | 1010.8 hPa | 0 mm | 0 m/s | - | - |
* Rain latest hour (hover to see other rain measurements)
** Current wind speed in m/s (hover to see current wind gust speed)